Shannon, Ireland

7:47 PM GMT on November 24, 2017 (GMT +0000)
Shannon

Weather History for EINN - March, 2014

Change the Weather History Date:

Saturday, March 22, 2014

  Actual Average Record
Temperature  
Mean Temperature 42 °F -  
Max Temperature 48 °F 54 °F 59 °F (2002)
Min Temperature 35 °F 40 °F 32 °F (2017)
Degree Days  
Heating Degree Days 24    
Moisture  
Dew Point 36 °F    
Average Humidity 80    
Maximum Humidity 93    
Minimum Humidity 52    
Precipitation  
Precipitation 0.08 in 0.08 in - ()
Sea Level Pressure  
Sea Level Pressure 29.48 in    
Wind  
Wind Speed 16 mph ()    
Max Wind Speed 28 mph    
Max Gust Speed 44 mph    
Visibility 7.0 miles    
Events Rain , Hail    
Averages and records for this station are not official NWS values.
T = Trace of Precipitation, MM = Missing Value Source: Averaged Metar Reports

Daily Weather History Graph

Daily Weather History Graph

Search for Another Location

Airport or City:

Trip Planner

Search our weather history database for the weather conditions in past years. The results will help you decide how hot, cold, wet, or windy it might be!

Date:

Astronomy

Mar. 22, 2014 Rise Set
Actual Time 6:33 AM GMT 6:52 PM GMT
Civil Twilight 5:59 AM GMT 7:26 PM GMT
Nautical Twilight 5:19 AM GMT 8:07 PM GMT
Astronomical Twilight 4:36 AM GMT 8:50 PM GMT
Moon 12:35 AM GMT (3/22) 9:26 AM GMT (3/22)
Length of Visible Light 13h 27m
Length of Day
12h 18m
Waning Gibbous, 67% of the Moon is Illuminated
Mar 22
Waning Gibbous
Mar 24
Last Quarter
Mar 30
New
Apr 7
First Quarter
Apr 15
Full

Hourly Weather History & Observations

Time (GMT) Temp. Windchill Dew Point Humidity Pressure Visibility Wind Dir Wind Speed Gust Speed Precip Events Conditions
12:00 AM 37 °F - 35 °F 89% 29.40 in 3 mi SW 22.4 mph - - Rain Light Rain Showers
12:00 AM 37.4 °F 26.6 °F 35.6 °F 93% 29.39 in 3.1 mi SW 21.9 mph - N/A Rain Light Rain Showers
12:30 AM 35.6 °F 27.1 °F 33.8 °F 93% 29.39 in 6.2 mi SSW 12.7 mph - N/A   Mostly Cloudy
1:00 AM 36 °F - 34 °F 88% 29.39 in 12 mi SSW 13.4 mph - - Rain Light Rain Showers
1:00 AM 35.6 °F 27.1 °F 33.8 °F 93% 29.39 in 6.2 mi SSW 12.7 mph - N/A   Mostly Cloudy
1:30 AM 35.6 °F 27.5 °F 33.8 °F 93% 29.36 in 6.2 mi South 11.5 mph - N/A   Mostly Cloudy
2:00 AM 37 °F - 33 °F 82% 29.37 in 5 mi SSW 24.6 mph - - Rain Light Rain Showers
2:00 AM 37.4 °F 25.9 °F 33.8 °F 87% 29.36 in 5.0 mi SSW 25.3 mph - N/A Rain Light Rain Showers
2:30 AM 35.6 °F 26.6 °F 33.8 °F 93% 29.36 in 6.2 mi South 13.8 mph - N/A   Mostly Cloudy
3:00 AM 37 °F - 34 °F 85% 29.36 in 12 mi SSW 17.9 mph - - Rain Light Rain Showers
3:00 AM 37.4 °F 27.8 °F 33.8 °F 87% 29.33 in 6.2 mi SSW 17.3 mph - N/A   Scattered Clouds
3:30 AM 37.4 °F 29.3 °F 35.6 °F 93% 29.33 in 6.2 mi South 12.7 mph - N/A   Mostly Cloudy
4:00 AM 37 °F - 35 °F 88% 29.34 in 5 mi SSW 17.9 mph - - Rain Light Rain Showers
4:00 AM 37.4 °F 27.8 °F 35.6 °F 93% 29.33 in 5.0 mi SSW 17.3 mph - N/A Rain Light Rain Showers
4:30 AM 37.4 °F 28.2 °F 35.6 °F 93% 29.33 in 6.2 mi SW 16.1 mph - N/A   Scattered Clouds
5:00 AM 38 °F - 36 °F 87% 29.33 in 4 mi SSW 20.1 mph - - Rain Light Rain Showers
5:00 AM 39.2 °F 29.6 °F 35.6 °F 87% 29.30 in 4.3 mi SSW 19.6 mph - N/A Rain Light Rain Showers
5:30 AM 39.2 °F 30.2 °F 37.4 °F 93% 29.33 in 6.2 mi SW 17.3 mph - N/A   Mostly Cloudy
6:00 AM 40 °F - 38 °F 88% 29.34 in 10 mi SW 13.4 mph - - Rain Light Rain Showers
6:00 AM 39.2 °F 31.6 °F 37.4 °F 93% 29.33 in 6.2 mi SW 12.7 mph - N/A   Mostly Cloudy
6:30 AM 39.2 °F 33.0 °F 37.4 °F 93% 29.33 in 5.0 mi West 9.2 mph - N/A Rain Light Rain Showers
7:00 AM 39 °F - 37 °F 89% 29.36 in 5 mi SW 6.7 mph - - Rain Light Rain Showers
7:00 AM 39.2 °F 34.2 °F 37.4 °F 93% 29.36 in 5.0 mi SW 6.9 mph - N/A Rain Light Rain Showers
7:30 AM 39.2 °F 33.0 °F 37.4 °F 93% 29.36 in 6.2 mi WSW 9.2 mph - N/A   Mostly Cloudy
8:00 AM 40 °F - 38 °F 88% 29.38 in 12 mi SW 8.9 mph - - Rain Light Rain Showers
8:00 AM 41.0 °F 34.3 °F 37.4 °F 87% 29.36 in 6.2 mi SW 11.5 mph - N/A   Mostly Cloudy
8:30 AM 42.8 °F 35.4 °F 37.4 °F 81% 29.36 in 6.2 mi SW 15.0 mph - N/A   Mostly Cloudy
9:00 AM 42 °F - 38 °F 80% 29.39 in 6 mi WSW 11.2 mph - - Hail Light Small Hail Showers
9:00 AM 41.0 °F 34.7 °F 37.4 °F 87% 29.39 in 5.6 mi WSW 10.4 mph - N/A Rain Light Rain Showers
9:30 AM 42.8 °F 35.4 °F 37.4 °F 81% 29.39 in 6.2 mi West 15.0 mph - N/A   Mostly Cloudy
10:00 AM 45 °F - 39 °F 72% 29.42 in 12 mi West 13.4 mph - - Hail Light Hail Showers
10:00 AM 44.6 °F 38.1 °F 39.2 °F 81% 29.42 in 6.2 mi West 13.8 mph - N/A   Scattered Clouds
10:30 AM 46.4 °F 39.8 °F 39.2 °F 76% 29.42 in 6.2 mi West 16.1 mph - N/A   Scattered Clouds
11:00 AM 45 °F - 38 °F 69% 29.44 in 10 mi WNW 20.1 mph - - Rain Light Rain Showers
11:00 AM 44.6 °F 36.6 °F 37.4 °F 76% 29.42 in 6.2 mi WNW 19.6 mph 40.3 mph N/A   Scattered Clouds
11:30 AM 48.2 °F - 37.4 °F 66% 29.44 in 6.2 mi WNW 23.0 mph - N/A   Mostly Cloudy
12:00 PM 46 °F - 36 °F 57% 29.47 in 12 mi West 20.1 mph - - Rain Light Rain Showers
12:00 PM 46.4 °F 38.7 °F 35.6 °F 66% 29.44 in 6.2 mi West 20.7 mph 32.2 mph N/A   Mostly Cloudy
12:30 PM 41.0 °F 31.1 °F 35.6 °F 81% 29.47 in 6.2 mi West 23.0 mph 35.7 mph N/A Rain Light Rain Showers
1:00 PM 43 °F - 37 °F 72% 29.49 in 10 mi WNW 15.7 mph - - Rain Light Rain Showers
1:00 PM 42.8 °F 35.4 °F 37.4 °F 81% 29.47 in 6.2 mi WNW 15.0 mph - N/A   Mostly Cloudy
1:30 PM 46.4 °F 40.1 °F 39.2 °F 76% 29.47 in 6.2 mi West 15.0 mph - N/A   Scattered Clouds
2:00 PM 46 °F - - % 29.51 in 12 mi West 24.6 mph - -   Mostly Cloudy
2:00 PM 46.4 °F 38.1 °F 37.4 °F 71% 29.50 in 6.2 mi West 24.2 mph - N/A   Scattered Clouds
2:30 PM 46.4 °F 39.5 °F 39.2 °F 76% 29.50 in 6.2 mi NW 17.3 mph - N/A   Scattered Clouds
3:00 PM 47 °F - 35 °F 52%  in 10 mi WNW 22.4 mph - -   Partly Cloudy
3:00 PM 48.2 °F - 35.6 °F 62% 29.50 in 6.2 mi WNW 21.9 mph - N/A   Mostly Cloudy
3:30 PM 48.2 °F - 39.2 °F 71% 29.53 in 6.2 mi NW 16.1 mph - N/A   Mostly Cloudy
4:00 PM 42 °F - 36 °F 72% 29.57 in 7 mi WNW 20.1 mph - - Rain Light Rain Showers
4:00 PM 42.8 °F 34.0 °F 35.6 °F 76% 29.56 in 6.2 mi WNW 20.7 mph - N/A Rain Light Rain Showers
4:30 PM 44.6 °F 38.1 °F 37.4 °F 76% 29.56 in 6.2 mi West 13.8 mph - N/A   Mostly Cloudy
5:00 PM 45 °F - 34 °F 55% 29.59 in 11 mi West 20.1 mph - - Hail Light Hail Showers
5:00 PM 44.6 °F 36.4 °F 33.8 °F 66% 29.56 in 6.2 mi West 20.7 mph 36.8 mph N/A   Scattered Clouds
5:30 PM 44.6 °F 36.6 °F 35.6 °F 71% 29.59 in 6.2 mi West 19.6 mph - N/A   Partly Cloudy
6:00 PM 44 °F - 35 °F 61% 29.61 in 12 mi West 15.7 mph - - Rain Light Rain Showers
6:00 PM 44.6 °F 37.4 °F 35.6 °F 71% 29.59 in 6.2 mi West 16.1 mph - N/A   Partly Cloudy
6:30 PM 42.8 °F 34.8 °F 33.8 °F 70% 29.62 in 6.2 mi West 17.3 mph - N/A   Partly Cloudy
7:00 PM 41 °F - 36 °F 75% 29.63 in 10 mi West 13.4 mph - - Rain Light Rain Showers
7:00 PM 41.0 °F 33.5 °F 35.6 °F 81% 29.62 in 6.2 mi West 13.8 mph - N/A   Scattered Clouds
7:30 PM 42.8 °F 35.8 °F 35.6 °F 76% 29.62 in 6.2 mi WSW 13.8 mph - N/A   Scattered Clouds
8:00 PM 43 °F - 35 °F 64% 29.65 in 12 mi West 17.9 mph - -   Scattered Clouds
8:00 PM 42.8 °F 34.8 °F 35.6 °F 76% 29.62 in 6.2 mi West 17.3 mph - N/A   Mostly Cloudy
8:30 PM 42.8 °F 34.8 °F 35.6 °F 76% 29.62 in 6.2 mi WSW 17.3 mph - N/A Rain Light Rain Showers
9:00 PM 41 °F - 37 °F 80% 29.67 in 4 mi WNW 26.8 mph - - Rain Light Rain Showers
9:00 PM 41.0 °F 30.2 °F 37.4 °F 87% 29.65 in 4.3 mi WNW 27.6 mph 43.7 mph N/A Rain Light Rain Showers
9:30 PM 41.0 °F 32.5 °F 37.4 °F 87% 29.65 in 3.7 mi West 17.3 mph - N/A Rain Light Rain Showers
10:00 PM 41 °F - 38 °F 83% 29.68 in 12 mi West 17.9 mph - - Rain Light Rain Showers
10:00 PM 41.0 °F 32.2 °F 37.4 °F 87% 29.65 in 6.2 mi West 18.4 mph - N/A   Mostly Cloudy
10:30 PM 41.0 °F 33.5 °F 37.4 °F 87% 29.68 in 6.2 mi West 13.8 mph - N/A   Partly Cloudy
11:00 PM 42 °F - 38 °F 79% 29.71 in 12 mi West 13.4 mph - - Rain Light Rain Showers
11:00 PM 41.0 °F 33.5 °F 37.4 °F 87% 29.68 in 6.2 mi West 13.8 mph - N/A Rain Light Rain Showers
11:30 PM 42.8 °F 36.2 °F 39.2 °F 87% 29.71 in 6.2 mi NW 12.7 mph - N/A   Mostly Cloudy